TimeMDT,TemperatureF,Dew PointF,Humidity,Sea Level PressureIn,VisibilityMPH,Wind Direction,Wind SpeedMPH,Gust SpeedMPH,PrecipitationIn,Events,Conditions,WindDirDegrees,DateUTC
12:53 AM,64.0,48.0,56,30.06,10.0,NNW,3.5,-,N/A,,Clear,330,2013-07-17 06:53:00
1:53 AM,68.0,48.9,50,30.05,10.0,SE,3.5,-,N/A,,Clear,140,2013-07-17 07:53:00
2:53 AM,64.9,48.9,56,30.05,10.0,South,4.6,-,N/A,,Clear,190,2013-07-17 08:53:00
3:53 AM,64.0,51.1,63,30.05,10.0,South,6.9,-,N/A,,Clear,170,2013-07-17 09:53:00
4:53 AM,63.0,53.1,70,30.06,10.0,SE,5.8,-,N/A,,Clear,130,2013-07-17 10:53:00
5:53 AM,62.1,53.1,72,30.05,10.0,ESE,3.5,-,N/A,,Clear,120,2013-07-17 11:53:00
6:53 AM,64.0,54.0,70,30.08,10.0,NW,3.5,-,N/A,,Clear,320,2013-07-17 12:53:00
7:53 AM,66.0,54.0,65,30.10,10.0,Calm,Calm,-,N/A,,Clear,0,2013-07-17 13:53:00
8:53 AM,68.0,54.0,61,30.11,10.0,Variable,3.5,-,N/A,,Clear,0,2013-07-17 14:53:00
9:53 AM,71.1,54.0,55,30.10,10.0,SW,3.5,-,N/A,,Clear,230,2013-07-17 15:53:00
10:53 AM,75.0,51.1,43,30.08,10.0,SE,4.6,-,N/A,,Clear,130,2013-07-17 16:53:00
11:53 AM,78.1,50.0,37,30.07,10.0,Calm,Calm,-,N/A,,Clear,0,2013-07-17 17:53:00
12:53 PM,82.0,48.0,30,30.04,10.0,East,8.1,-,N/A,,Clear,100,2013-07-17 18:53:00
1:53 PM,84.9,50.0,30,30.00,10.0,East,9.2,-,N/A,,Clear,90,2013-07-17 19:53:00
2:53 PM,87.1,43.0,21,29.99,10.0,ESE,5.8,-,N/A,,Partly Cloudy,120,2013-07-17 20:53:00
3:53 PM,88.0,46.0,23,29.96,10.0,SE,6.9,-,N/A,,Clear,140,2013-07-17 21:53:00
4:53 PM,91.0,44.1,20,29.94,10.0,NNE,9.2,-,N/A,,Clear,20,2013-07-17 22:53:00
5:53 PM,90.0,42.1,19,29.93,10.0,East,9.2,-,N/A,,Clear,90,2013-07-17 23:53:00
6:53 PM,88.0,44.1,22,29.92,10.0,NE,12.7,20.7,N/A,,Clear,40,2013-07-18 00:53:00
7:53 PM,87.1,44.1,22,29.91,10.0,NE,12.7,-,N/A,,Clear,40,2013-07-18 01:53:00
8:53 PM,82.9,43.0,24,29.93,10.0,NNE,4.6,-,N/A,,Clear,30,2013-07-18 02:53:00
9:53 PM,82.0,46.9,29,29.96,10.0,WSW,19.6,23.0,N/A,,Mostly Cloudy,250,2013-07-18 03:53:00
10:01 PM,80.6,48.2,32,30.19,10.0,WSW,12.7,-,0.00,Rain-Thunderstorm,Light Thunderstorms and Rain,250,2013-07-18 04:01:00
10:33 PM,78.8,48.2,34,30.20,10.0,WSW,6.9,-,0.00,,Mostly Cloudy,240,2013-07-18 04:33:00
10:53 PM,79.0,48.0,34,29.97,10.0,SW,3.5,-,0.00,,Scattered Clouds,220,2013-07-18 04:53:00
11:53 PM,75.0,51.1,43,30.01,10.0,NW,19.6,29.9,0.00,Rain,Light Rain,320,2013-07-18 05:53:00